Torrington, WY

10:43 AM MDT on May 27, 2017 (GMT -0600)
Torrington Municipal

Weather History for KTOR - November, 2013

Change the Weather History Date:

Wednesday, November 6, 2013

  Actual Average Record
Temperature  
Mean Temperature 35 °F 40 °F  
Max Temperature 51 °F 55 °F 77 °F (2010)
Min Temperature 19 °F 26 °F 15 °F (2003)
Degree Days  
Heating Degree Days 30 25  
Month to date heating degree days 159 142  
Since 1 July heating degree days 861 852  
Cooling Degree Days 0 0  
Month to date cooling degree days 0 0  
Year to date cooling degree days 893 678  
Moisture  
Dew Point 24 °F    
Average Humidity 61    
Maximum Humidity 84    
Minimum Humidity 38    
Precipitation  
Precipitation T in 0.02 in 0.03 in (2008)
Month to date precipitation 0.23 0.13  
Year to date precipitation 13.35 13.53  
Sea Level Pressure  
Sea Level Pressure 30.24 in    
Wind  
Wind Speed 10 mph (WNW)    
Max Wind Speed 24 mph    
Max Gust Speed 31 mph    
Visibility 10 miles    
Events      
T = Trace of Precipitation, MM = Missing Value Source: NWS Daily Summary

Daily Weather History Graph

Daily Weather History Graph

Search for Another Location

Airport or City:

Trip Planner

Search our weather history database for the weather conditions in past years. The results will help you decide how hot, cold, wet, or windy it might be!

Date:

Astronomy

Nov. 06, 2013 Rise Set
Actual Time 6:35 AM MST 4:44 PM MST
Civil Twilight 6:06 AM MST 5:13 PM MST
Nautical Twilight 5:33 AM MST 5:46 PM MST
Astronomical Twilight 5:00 AM MST 6:19 PM MST
Moon 9:54 AM MST (11/6) 7:49 PM MST (11/6)
Length of Visible Light 11h 07m
Length of Day
10h 08m
Waxing Crescent, 14% of the Moon is Illuminated
Nov 6
Waxing Crescent
Nov 9
First Quarter
Nov 17
Full
Nov 25
Last Quarter
Dec 2
New

Hourly Weather History & Observations

Time (MST) Temp. Windchill Dew Point Humidity Pressure Visibility Wind Dir Wind Speed Gust Speed Precip Events Conditions
12:53 AM 25.0 °F 14.8 °F 19.0 °F 78% 30.16 in 10.0 mi WNW 10.4 mph - N/A   Clear
1:53 AM 25.0 °F 19.3 °F 18.0 °F 75% 30.17 in 10.0 mi West 4.6 mph - N/A   Clear
2:53 AM 26.1 °F 16.2 °F 18.0 °F 71% 30.16 in 10.0 mi WNW 10.4 mph - N/A   Clear
3:53 AM 32.0 °F 22.5 °F 19.0 °F 59% 30.15 in 10.0 mi West 12.7 mph - N/A   Clear
4:53 AM 30.0 °F 24.1 °F 18.0 °F 61% 30.18 in 10.0 mi West 5.8 mph - N/A   Clear
5:53 AM 30.9 °F 22.2 °F 19.0 °F 61% 30.19 in 10.0 mi WNW 10.4 mph - N/A   Clear
6:53 AM 33.1 °F 24.9 °F 19.0 °F 56% 30.21 in 10.0 mi WNW 10.4 mph - N/A   Clear
7:53 AM 35.1 °F 27.9 °F 21.0 °F 57% 30.23 in 10.0 mi WNW 9.2 mph - N/A   Clear
8:53 AM 39.0 °F 31.8 °F 25.0 °F 57% 30.24 in 10.0 mi West 11.5 mph - N/A   Clear
9:53 AM 43.0 °F 36.0 °F 26.1 °F 51% 30.24 in 10.0 mi WNW 13.8 mph 23.0 mph N/A   Clear
10:53 AM 45.0 °F 36.6 °F 24.1 °F 44% 30.24 in 10.0 mi West 21.9 mph 27.6 mph N/A   Clear
11:53 AM 46.9 °F - 24.1 °F 41% 30.20 in 10.0 mi West 18.4 mph 24.2 mph N/A   Clear
12:53 PM 48.9 °F - 25.0 °F 39% 30.18 in 10.0 mi West 16.1 mph 31.1 mph N/A   Clear
1:53 PM 46.9 °F - 23.0 °F 39% 30.19 in 10.0 mi NW 10.4 mph - N/A   Overcast
2:53 PM 50.0 °F - 26.1 °F 39% 30.19 in 10.0 mi West 17.3 mph 26.5 mph N/A   Overcast
3:53 PM 46.0 °F 39.0 °F 26.1 °F 46% 30.19 in 10.0 mi West 17.3 mph 26.5 mph N/A   Overcast
4:53 PM 42.1 °F 37.1 °F 28.0 °F 58% 30.24 in 10.0 mi NNW 8.1 mph 19.6 mph N/A   Mostly Cloudy
5:53 PM 41.0 °F 33.9 °F 30.0 °F 65% 30.26 in 10.0 mi West 12.7 mph - 0.00 in   Mostly Cloudy
6:53 PM 35.1 °F 28.6 °F 28.9 °F 78% 30.29 in 10.0 mi North 8.1 mph - N/A   Clear
7:53 PM 37.0 °F 30.4 °F 28.0 °F 70% 30.33 in 10.0 mi North 9.2 mph - N/A   Mostly Cloudy
8:53 PM 33.1 °F - 27.0 °F 78% 30.35 in 10.0 mi Calm Calm - N/A   Partly Cloudy
9:53 PM 32.0 °F 26.4 °F 27.0 °F 82% 30.37 in 10.0 mi WNW 5.8 mph - N/A   Overcast
10:53 PM 33.1 °F 27.7 °F 28.0 °F 82% 30.38 in 10.0 mi WNW 5.8 mph - N/A   Mostly Cloudy
11:53 PM 30.0 °F - 27.0 °F 88% 30.39 in 10.0 mi Calm Calm - N/A   Clear